Regional Weather Roundup
Issued by NWS

Home | Current Version | Previous Version | Text Only | Print | Product List | Glossary Off
Versions: 1 2 3 4 5 6 7 8 9 10 11 12 13 14 15 16 17 18 19 20 21 22 23 24 25 26 27 28 29 30 31 32 33 34 35 36 37 38 39 40 41 42 43 44 45 46 47 48 49 50

000
ASUS43 KLMK 010110
RWRKY
KENTUCKY REGIONAL WEATHER ROUNDUP
NATIONAL WEATHER SERVICE LOUISVILLE KY
800 PM EST SAT FEB 28 2015

NOTE "FAIR" INDICATES FEW OR NO CLOUDS BELOW 12,000 FEET
WITH NO SIGNIFICANT WEATHER AND/OR OBSTRUCTIONS TO VISIBILITY.

KYZ001>023-026-027-061>063-070>075-010200-
WESTERN AND SOUTH CENTRAL KENTUCKY

CITY           SKY/WX    TMP DP  RH WIND       PRES   REMARKS
PADUCAH        CLOUDY    34  20  56 N6        30.46R WCI  29
HENDERSON      CLOUDY    34  19  55 NE9       30.45F WCI  26
OWENSBORO      CLOUDY    36  21  54 E6        30.47F WCI  31
HOPKINSVILLE   DRIZZLE   36  24  62 E6        30.42F WCI  31
BOWLING GREEN  CLOUDY    36  21  54 NE3       30.46S
GLASGOW        CLOUDY    36  24  62 E6        30.45F WCI  31
$$

KYZ024-025-028>034-038-045-046-053-010200-
NORTH CENTRAL KENTUCKY

CITY           SKY/WX    TMP DP  RH WIND       PRES   REMARKS
LOUISVILLE/SDF CLOUDY    34  17  50 E6        30.49F WCI  29
LOUISVILLE/LOU CLOUDY    33  16  49 E7        30.50F WCI  27
FORT KNOX      CLOUDY    34  17  50 E7        30.46R WCI  28
$$

KYZ035>037-039>044-047>052-055>060-089>105-010200-
NORTHEAST KENTUCKY

CITY           SKY/WX    TMP DP  RH WIND       PRES   REMARKS
LEXINGTON      CLOUDY    33  18  53 E9        30.48F WCI  25
COVINGTON      CLOUDY    28  13  53 E8        30.51F WCI  20
FRANKFORT        N/A     31  16  54 E6        30.48F WCI  25
$$

KYZ054-064>069-076>088-106>120-010200-
SOUTHEAST KENTUCKY

CITY           SKY/WX    TMP DP  RH WIND       PRES   REMARKS
JACKSON        MOCLDY    36  17  46 NE3       30.48F
LONDON         MOCLDY    40  18  41 E3        30.46F
SOMERSET       CLOUDY    37  21  52 CALM      30.48S
MIDDLESBORO    MOCLDY    34  29  80 CALM      30.49F
MONTICELLO     CLOUDY    39  26  60 CALM      30.48S
$$



USA.gov is the U.S. government's official web portal to all federal, state and local government web resources and services.